Location: Hermaringen
(48.5952°N, 10.2585°E)
Time: 14:02:29
(UTC+00:00)

SR - Pass Details

Date: 25 February 2026
Orbit: 572 x 849 km, 66.7° (Epoch: 12 March)

Event Time Altitude Azimuth Distance (km) Brightness Sun altitude
Rises 01:31:26 0° 186° (S) 2,772 - -43.3°
Reaches altitude 10° 01:33:47 10° 175° (S) 1,892 - -43.0°
Maximum altitude 01:37:30 31° 114° (ESE) 1,064 - -42.6°
Drops below altitude 10° 01:41:24 10° 52° (NE) 1,993 - -42.1°
Exits shadow 01:41:55 - 49° (NE) 2,181 ? -42.1°
Sets 01:43:56 0° 42° (NE) 2,947 ? -41.8°
